WESTFORD NEEDLES, 2364

Orbit data source: Space-Track

WESTFORD NEEDLES, 2364 is space debris in LEO originally from a launch on Thu, 09 May 1963 UTC launched from the Air Force Western Test Range (AFWTR). Debris objects in space refer to the collection of defunct objects orbiting the Earth. Examples of debris include non-operational satellites, rocket bodies, and fragments generated from explosions, collisions, or faulty payload assembly.

Loading next visibility...
Identifier
2364, 1963-014P
Orbit
LEO
Country
Flag of USUS
Related business
Manufacturer
Unknown
Mission
Spacecraft
Bus & Motor
Unknown
Mass
Unknown
Launch date (UTC)
1963-05-09 (62 years ago)
Launch vehicle
Unknown
Launch site
Air Force Western Test Range (AFWTR)
Object type
Payload
Rocket body
Debris
Shape & HBR
Unknown shape, 0.4 m
Radar Cross Section
Medium (>0.1 m² and <1 m²)

Expand to show TLE details & history
Last TLE update: 2 weeks ago

TLE from 2 weeks ago
0 WESTFORD NEEDLES
1  2364U 63014P   25294.96897927  .00000036  00000-0  12995-1 0  9994
2  2364  87.5558 302.9814 0649693 286.4241  66.6198  8.67410575975310
Epoch: 2025-10-21T23:15Z
TLE epoch observation values (Epoch: 2025-10-21T23:15:19.808Z)
Latitude
-0.00013°
Longitude
-76.50046°
Altitude
3,408.802 km
Speed
6.453 km/s
True Right ascension
20h 11m 55s
True Declination
0° 00' 00"
Sunlit
Object was in daylight at epoch
Visualization orbit readout
Latitude
Unknown
Longitude
Unknown
Altitude
Unknown
Speed
Unknown
Apparent Right ascension
Unknown
Apparent Declination
Unknown
Sunlit
N/A
Visualization observer readout
Local Sidereal Time
08:22:49
Azimuth
Unknown
Elevation
Unknown
Doppler factor
Unknown
Orbital elements
Apogee altitude
4,275.399 km
Perigee altitude
2,975.544 km
Semi-major axis
10,003.609 km
Eccentricity
0.06497
Inclination
87.5558°
RAAN
302.9814°
Arg. of periapsis
286.4241°
True anomaly
73.66284°
Mean anomaly
66.6198°
Eccentric anomaly
70.12044°
Mean motion
2.16924 °/min
Orbital period
165.96 mins
BSTAR
0.012995
Loading maneuver chart data...
Computing Atmospheric mass density...

Documentation

Showing up to 5 results
|